Retour au catalogue

FENGYUN 1C DEB

LostPO
NORAD 40687·DEBRIS·🇨🇳 China

Lancé May 10, 1999 depuis Taiyuan Satellite Launch Center

Loading…

Prochains Passages (prochaines 24 heures)

TLE

PériméSource: Space-Track

Époque: Nov 13, 2016, 02:30 UTC

1 40687U 99025EWT 16318.10473189 +.00000159 +00000-0 +25339-3 0  9992
2 40687 099.1589 276.1511 0432317 121.8195 238.2784 13.28602894098327

Suivez FENGYUN 1C DEB en temps réel avec AllMySat

Download on the App Store